Home   Weather   Skien   Past weeks

Flag for Norway Past Weather in Skien, Norway — Yesterday and Last 2 Weeks

Now
36 °F

Chilly.


Feels Like: 32 °F
Forecast: 34 / 39 °F
Wind: 5 mph from Northwest

Location: Torp

Current Time: Apr 27, 2017 at 2:02:27 am

Latest Report: Apr 27, 2017 at 1:20 am


Visibility: N/A

Pressure: 29.74 "Hg

Humidity: 65%

Dew Point: 25 °F

Location of SkienLocation

Past Weather in Skien — Graph

°F

Skien Temperature Yesterday

Maximum temperature yesterday: 48 °F (at 2:20 pm)
Minimum temperature yesterday: 34 °F (at 4:50 am)
Average temperature yesterday: 40 °F

High & Low Weather Summary for the Past Weeks

 TemperatureHumidityPressure
High55 °F (Apr 21, 11:50 am)100% (Apr 12, 12:20 am)30.54 "Hg (Apr 12, 12:20 am)
Low27 °F (Apr 16, 2:50 am)22% (Apr 22, 1:20 pm)29.27 "Hg (Apr 24, 10:50 am)
Average39 °F70%29.83 "Hg
* Reported Apr 12 12:20 am — Apr 27 12:50 am, Skien, Weather by CustomWeather, © 2017

Note: Actual official high and low records may vary slightly from our data, if they occured in-between our weather recording intervals... More about our weather records

Advertising

Skien Weather History for the Previous 24 Hours

Scroll right to see more
 ConditionsComfort  
Time TempWeatherWind HumidityBarometerVisibility
12:50 am
Thu, Apr 27
36 °FChilly.3 mph65%29.74 "HgN/A
12:20 am36 °FChilly.2 mph70%29.74 "HgN/A
11:50 pm
Wed, Apr 26
36 °FChilly.6 mph70%29.74 "HgN/A
11:20 pm36 °FChilly.5 mph70%29.77 "HgN/A
10:50 pm37 °FPassing clouds.6 mph65%29.77 "HgN/A
10:20 pm37 °FClear.5 mph65%29.77 "Hg10 mi
9:50 pm39 °FClear.5 mph61%29.77 "Hg10 mi
9:20 pm39 °FClear.5 mph61%29.77 "Hg10 mi
8:50 pm41 °FSunny.5 mph57%29.77 "Hg10 mi
7:50 pm43 °FPassing clouds.5 mph53%29.77 "HgN/A
7:20 pm45 °FScattered showers. Passing clouds.9 mph49%29.77 "HgN/A
6:50 pm45 °FScattered showers. Passing clouds.8 mph49%29.77 "HgN/A
6:20 pm43 °FScattered showers. Passing clouds.13 mph53%29.77 "HgN/A
5:50 pm43 °FSprinkles. Passing clouds.13 mph49%29.77 "HgN/A
5:20 pm45 °FScattered clouds.12 mph46%29.77 "HgN/A
4:50 pm46 °FPassing clouds.12 mph43%29.77 "HgN/A
4:20 pm45 °FScattered clouds.12 mph39%29.77 "HgN/A
3:50 pm45 °FScattered clouds.13 mph53%29.77 "HgN/A
3:20 pm45 °FScattered clouds.14 mph49%29.77 "HgN/A
2:50 pm45 °FScattered clouds.8 mph46%29.77 "HgN/A
2:20 pm48 °FSunny.6 mph27%29.77 "Hg10 mi
1:50 pm46 °FPassing clouds.8 mph29%29.77 "HgN/A
1:20 pm46 °FPassing clouds.8 mph27%29.77 "HgN/A
12:50 pm46 °FPassing clouds.9 mph32%29.77 "HgN/A
12:20 pm45 °FPassing clouds.9 mph34%29.77 "HgN/A
11:50 am45 °FPassing clouds.6 mph37%29.77 "HgN/A
11:20 am45 °FPassing clouds.8 mph37%29.77 "HgN/A
10:50 am43 °FPassing clouds.10 mph39%29.77 "HgN/A
10:20 am43 °FPassing clouds.10 mph39%29.77 "HgN/A
9:50 am43 °FPassing clouds.10 mph39%29.77 "HgN/A
9:20 am41 °FSunny.13 mph42%29.77 "Hg10 mi
8:50 am41 °FSunny.10 mph45%29.77 "Hg10 mi
8:20 am39 °FSunny.13 mph45%29.74 "Hg10 mi
7:50 am37 °FSunny.7 mph52%29.74 "Hg10 mi
7:20 am36 °FSunny.9 mph52%29.74 "Hg10 mi
6:50 am36 °FSunny.12 mph56%29.74 "Hg10 mi
6:20 am34 °FSunny.9 mph60%29.71 "Hg10 mi
5:50 am34 °FSunny.10 mph60%29.71 "Hg10 mi
5:33 am34 °FClear.10 mph60%29.71 "Hg10 mi
5:20 am34 °FChilly.8 mph60%29.71 "HgN/A
4:50 am34 °FChilly.9 mph60%29.71 "HgN/A
4:20 am36 °FChilly.10 mph56%29.71 "HgN/A
3:50 am36 °FChilly.10 mph56%29.68 "HgN/A
3:20 am36 °FChilly.12 mph56%29.68 "HgN/A
2:50 am36 °FChilly.13 mph56%29.68 "HgN/A
2:20 am36 °FChilly.13 mph56%29.68 "HgN/A
Weather by CustomWeather, © 2017

See weather overviewHow to use our weather pages